Regional Weather Roundup
Issued by NWS New Orleans/Baton Rouge, LA

Current Version | Previous Version | Text Only | Print | Product List | Glossary On
Versions: 1 2 3 4 5 6 7 8 9 10 11 12 13 14 15 16 17 18 19 20 21 22 23 24 25 26 27 28 29 30 31 32 33 34 35 36 37 38 39 40 41 42 43 44 45 46 47 48 49 50
000
ASUS44 KLIX 221405
RWRLIX
NEW ORLEANS REGIONAL WEATHER ROUNDUP
NATIONAL WEATHER SERVICE NEW ORLEANS LA
900 AM CDT WED OCT 22 2014

NOTE: "FAIR" INDICATES FEW OR NO CLOUDS BELOW 12,000 FEET WITH NO
      SIGNIFICANT WEATHER AND/OR OBSTRUCTIONS TO VISIBILITY.
      SKY/WX - SKY CONDITION AND SIGNIFICANT WEATHER.
      TMP - AIR TEMPERATURE.     DP    - DEWPOINT TEMPERATURE.
      RH  - RELATIVE HUMIDITY.   PRES  - PRESSURE.
      HI  - HEAT INDEX.          WCI   - WIND CHILL INDEX.

*  THESE STATIONS ARE NOT NWS OR FAA STATIONS AND ARE NOT UNDER
   NWS QUALITY CONTROL.

LAZ038-040-048-061>063-065>067-069-221500-
SOUTHEAST LOUISIANA

CITY           SKY/WX    TMP DP  RH WIND       PRES   REMARKS
N.O. AUDUBON     N/A     73  56  56 MISG        N/A
N.O. INTL ARPT MOSUNNY   71  56  58 NE14      30.08R
N.O. LAKEFRONT SUNNY     71  57  61 NE16      30.09R
N.O. DOWNTOWN*   N/A     68  52  56 NE9       30.09R
SLIDELL        SUNNY     63  55  75 N6        30.10R
BATON ROUGE    SUNNY     64  55  72 NE8       30.10R
BOOTHVILLE     SUNNY     74  64  71 NE8       30.06R
BELLE CHASSE   SUNNY     69  58  67 NE8       30.08R
BOGALUSA*        N/A     63  54  73 NE5       30.13R
NEW ROADS*       N/A     65  54  68 NE6       30.11R
GONZALES*        N/A     64  56  76 NE6       30.10R
HAMMOND*       SUNNY     66  52  59 NE6       30.12S
HOUMA*         SUNNY     66  63  88 NE6       30.08R
PORT FOURCHON* SUNNY     72  64  78 NE12      30.09R

$$

MSZ070-080>082-221500-
SOUTHERN MISSISSIPPI

CITY           SKY/WX    TMP DP  RH WIND       PRES   REMARKS
MCCOMB         SUNNY     63  51  65 VRB3      30.13R
GULFPORT       SUNNY     64  53  67 N8        30.09R
BILOXI         SUNNY     64  54  69 NE9       30.10R
PASCAGOULA     SUNNY     62  55  77 NE8       30.09R
STENNIS ARPT*  SUNNY     64  52  63 NE7       30.10R

$$

COASTAL OBSERVATIONS
LAKE AND NEARSHORE STATIONS

STATION/POSITION TIME  TEMP    WIND        PRES    WAVE
                       AIR SEA DIR/SP/G            HT/PER
                 (UTC) (F)     (DEG/KT/KT) (MB)    (FT/S)
PASCAGOULA       1400   64      20/  6/  9 1018.3
WAVELAND YACHT   1400   64      40/ 10/ 13 1018.1
GRAND ISLE       1400   71 75   50/ 11/ 15 1018.3
SOUTHWEST PASS   1400   76 82   50/ 12/ 14 1017.6
NEW CANAL        1400   69 71   60/ 17/ 19 1018.8
SHELL BEACH      1400   69 68   40/ 16/ 17 1018.3

OFFSHORE STATIONS

STATION/POSITION TIME  TEMP    WIND        PRES    WAVE
                       AIR SEA DIR/SP/G            HT/PER
                 (UTC) (F)     (DEG/KT/KT) (MB)    (FT/S)
64 S DAUPHIN ISL 1334   75 79   50/ 16/ 17 1018.0    3/ 4

$$




USA.gov is the U.S. government's official web portal to all federal, state and local government web resources and services.